User: anonymous   Login
Location: Kott?ru
(16.6209°N, 80.6208°E)
Time: 01:46:39
(UTC+00:00)
Language:

Cosmos 2150 Rocket - Orbit

View from above orbital plane
View from above orbital plane
View from above satellite
View from above satellite

Ground track
Ground track

The orbit data is extracted from the following two-line orbital elements,

1 21419U 91041B   20338.19339968  .00000140  00000-0  58764-4 0  9995
2 21419  74.0379 145.6016 0040083 124.7967 235.6967 14.33975950541782
Epoch (UTC): 03 December 2020 04:38:29
Eccentricity: 0.0040083
inclination: 74.0379°
perigee height: 750 km
apogee height: 807 km
right ascension of ascending node: 145.6016°
argument of perigee: 124.7967°
revolutions per day: 14.33975950
mean anomaly at epoch: 235.6967°
orbit number at epoch: 54178

The dashed part of the orbit path shows where the satellite is in the earth's shadow,  

DLR